DW0687 Weather Reports


time (UTC)temp
C
wind
direction
speed
KPH
gust
KPH
rain 1hr
cm
rain 24hr
cm
rain mn
cm
humidity
%
barometer
mb
20260906193518 22 232 1.6 11.3 0.00 0.00 0.00 82 1019.0
20260906193034 22 226 3.2 14.5 0.00 0.00 0.00 83 1018.6
20260906192519 22 228 3.2 14.5 0.00 0.00 0.00 82 1018.4
20260906192017 22 251 6.4 17.7 0.00 0.00 0.00 82 1018.2
20260906191532 23 215 6.4 17.7 0.00 0.00 0.00 80 1018.2
20260906191016 23 221 3.2 16.1 0.00 0.00 0.00 80 1017.9
20260906190512 23 131 4.8 24.1 0.00 0.00 0.00 79 1017.8
20260906190029 24 211 8.0 24.1 0.00 0.00 0.00 76 1017.6
20260906185513 25 193 4.8 27.4 0.00 0.00 0.00 74 1017.4
20260906185014 27 205 8.0 27.4 0.00 0.00 0.00 72 1016.9
20260906184523 28 199 0.0 4.8 0.00 0.00 0.00 77 1016.6
20260906184005 28 234 1.6 4.8 0.00 0.00 0.00 77 1016.7
20260906183505 27 241 0.0 3.2 0.00 0.00 0.00 78 1016.6
20260906183007 27 214 0.0 4.8 0.00 0.00 0.00 80 1016.8
20260906182507 27 214 0.0 4.8 0.00 0.00 0.00 80 1017.0
20260906182011 27 330 0.0 4.8 0.00 0.00 0.00 82 1017.0
20260906181533 27 330 0.0 8.0 0.00 0.00 0.00 83 1016.9
20260906181011 27 226 0.0 9.7 0.00 0.00 0.00 84 1016.8
20260906180512 27 271 1.6 9.7 0.00 0.00 0.00 84 1016.8
20260906180020 26 276 1.6 12.9 0.00 0.00 0.00 84 1016.7
20260906175512 26 305 1.6 12.9 0.00 0.00 0.00 84 1016.7
20260906175015 26 309 1.6 9.7 0.00 0.00 0.00 84 1016.8
20260906174523 26 4 1.6 8.0 0.00 0.00 0.00 85 1017.0
20260906174016 26 232 0.0 8.0 0.00 0.00 0.00 85 1017.2
20260906173516 26 279 0.0 11.3 0.00 0.00 0.00 85 1017.3
20260906173006 26 279 0.0 11.3 0.00 0.00 0.00 85 1017.5
20260906172506 26 217 0.0 8.0 0.00 0.00 0.00 84 1017.5
20260906172006 26 251 0.0 4.8 0.00 0.00 0.00 84 1017.5
20260906171513 26 251 0.0 4.8 0.00 0.00 0.00 84 1017.3
20260906171009 26 275 0.0 6.4 0.00 0.00 0.00 84 1017.6
20260906170510 26 227 1.6 6.4 0.00 0.00 0.00 84 1017.7
20260906170018 26 207 0.0 8.0 0.00 0.00 0.00 84 1017.8
20260906165515 26 210 0.0 8.0 0.00 0.00 0.00 84 1017.7
20260906165012 26 289 0.0 4.8 0.00 0.00 0.00 84 1017.8
20260906164527 26 274 0.0 12.9 0.00 0.00 0.00 84 1017.8
20260906164014 26 214 4.8 12.9 0.00 0.00 0.00 84 1017.3
20260906163515 26 226 1.6 9.7 0.00 0.00 0.00 83 1017.4
20260906163042 26 332 0.0 14.5 0.00 0.00 0.00 83 1017.5
20260906162516 26 223 3.2 14.5 0.00 0.00 0.00 83 1017.0
20260906162015 26 203 6.4 12.9 0.00 0.00 0.00 83 1016.7
20260906161506 26 197 3.2 12.9 0.00 0.00 0.00 83 1016.4
20260906161009 26 234 3.2 12.9 0.00 0.00 0.00 83 1016.3
20260906160508 26 224 6.4 11.3 0.00 0.00 0.00 83 1016.3
20260906160016 26 137 3.2 9.7 0.00 0.00 0.00 83 1016.3
20260906155511 26 222 3.2 6.4 0.00 0.00 0.00 84 1016.2
20260906155011 26 234 0.0 4.8 0.00 0.00 0.00 84 1016.0
20260906154521 26 234 0.0 8.0 0.00 0.00 0.00 85 1016.0
20260906154013 26 236 0.0 9.7 0.00 0.00 0.00 85 1016.2
20260906153514 26 201 3.2 11.3 0.00 0.00 0.00 86 1016.2
20260906153027 26 217 3.2 11.3 0.00 0.00 0.00 86 1016.2
20260906152517 26 224 3.2 11.3 0.00 0.00 0.00 87 1016.2
20260906152016 26 195 4.8 14.5 0.00 0.00 0.00 87 1016.2
20260906151525 25 191 4.8 14.5 0.00 0.00 0.00 88 1016.2
20260906151021 25 235 1.6 11.3 0.00 0.00 0.00 88 1016.3
20260906150508 25 182 3.2 12.9 0.00 0.00 0.00 88 1016.3
20260906150016 25 200 6.4 12.9 0.00 0.00 0.00 89 1016.3
20260906145509 25 208 4.8 12.9 0.00 0.00 0.00 89 1016.5
20260906145008 25 223 3.2 12.9 0.00 0.00 0.00 89 1016.5
20260906144520 25 219 4.8 14.5 0.00 0.00 0.00 89 1016.5
20260906144010 25 176 4.8 14.5 0.00 0.00 0.00 90 1016.6
20260906143514 25 202 3.2 12.9 0.00 0.00 0.00 90 1016.5
20260906143026 25 231 1.6 11.3 0.00 0.00 0.00 90 1016.4
20260906142517 25 224 3.2 11.3 0.00 0.00 0.00 90 1016.5
20260906142021 25 226 3.2 11.3 0.00 0.00 0.00 90 1016.3
20260906141530 25 224 1.6 6.4 0.00 0.00 0.00 90 1016.2
20260906141016 24 215 0.0 6.4 0.00 0.00 0.00 90 1016.2
20260906140517 24 224 0.0 11.3 0.00 0.00 0.00 90 1016.2
20260906140036 24 200 3.2 11.3 0.00 0.00 0.00 91 1016.2
20260906135508 24 226 1.6 11.3 0.00 0.00 0.00 91 1016.1
20260906135007 24 232 0.0 8.0 0.00 0.00 0.00 91 1015.9
20260906134515 24 171 1.6 11.3 0.00 0.00 0.00 91 1016.0
20260906134010 24 206 0.0 11.3 0.00 0.00 0.00 91 1015.9
20260906133513 24 243 0.0 8.0 0.00 0.00 0.00 91 1015.9
20260906133018 24 237 0.0 9.7 0.00 0.00 0.00 91 1015.8
20260906132513 24 165 0.0 9.7 0.00 0.05 0.00 91 1015.8
20260906132013 24 129 0.0 4.8 0.00 0.08 0.00 91 1015.7
20260906131528 24 185 0.0 6.4 0.00 0.13 0.00 91 1015.7
20260906131017 24 215 0.0 8.0 0.00 0.15 0.00 91 1015.7
20260906130503 24 226 0.0 8.0 0.00 0.15 0.00 91 1015.7
20260906130014 24 215 1.6 8.0 0.00 0.15 0.00 91 1015.6
20260906125504 24 142 1.6 11.3 0.00 0.18 0.00 91 1015.6
20260906125005 24 174 3.2 11.3 0.00 0.18 0.00 91 1015.5
20260906124516 24 229 1.6 12.9 0.00 0.20 0.00 91 1015.5
20260906124011 24 212 1.6 12.9 0.00 0.23 0.00 91 1015.4
20260906123511 24 235 0.0 11.3 0.00 0.28 0.00 91 1015.4
20260906123033 24 197 1.6 11.3 0.00 0.30 0.00 91 1015.3
20260906122511 24 230 0.0 6.4 0.00 0.33 0.00 91 1015.4
20260906122013 24 225 0.0 4.8 0.00 0.38 0.00 91 1015.3
20260906121525 24 228 0.0 4.8 0.00 0.43 0.00 91 1015.4
20260906121013 23 212 0.0 6.4 0.00 0.53 0.00 91 1015.4
20260906120516 24 220 0.0 12.9 0.00 0.56 0.00 91 1015.4
20260906120028 24 222 0.0 12.9 0.00 0.61 0.00 91 1015.3
20260906115504 24 233 3.2 8.0 0.00 0.66 0.00 91 1015.1
20260906115004 24 187 1.6 8.0 0.00 0.66 0.00 91 1015.1
20260906114511 24 249 0.0 8.0 0.00 0.69 0.00 91 1015.2
20260906114006 24 225 0.0 3.2 0.00 0.71 0.00 91 1015.2
20260906113509 24 233 0.0 4.8 0.00 0.71 0.00 91 1015.2
20260906113016 24 236 0.0 6.4 0.00 0.74 0.00 90 1015.1
20260906112509 24 195 0.0 6.4 0.00 0.81 0.00 90 1015.1
20260906112011 24 234 0.0 8.0 0.00 0.86 0.00 90 1015.0
20260906111522 24 212 0.0 11.3 0.00 0.91 0.00 90 1015.0
20260906111014 24 203 0.0 11.3 0.00 0.91 0.00 90 1014.9
20260906110512 24 232 0.0 6.4 0.00 0.91 0.00 90 1014.9
20260906110027 24 227 0.0 11.3 0.00 0.91 0.00 90 1014.7
20260906105514 24 239 0.0 11.3 0.00 0.91 0.00 90 1014.7
20260906105016 24 251 0.0 9.7 0.00 0.94 0.00 90 1014.7
20260906104508 24 167 0.0 6.4 0.00 0.94 0.00 90 1014.7
20260906104006 24 184 0.0 6.4 0.00 0.94 0.00 90 1014.7
20260906103508 24 156 0.0 9.7 0.00 0.94 0.00 90 1014.7
20260906103012 24 162 0.0 9.7 0.00 0.94 0.00 90 1014.7
20260906102511 24 226 0.0 11.3 0.00 0.94 0.00 90 1014.7
20260906102013 24 195 1.6 11.3 0.00 0.94 0.00 90 1014.7
20260906101519 24 235 0.0 6.4 0.00 0.94 0.00 90 1014.6
20260906101013 24 218 0.0 9.7 0.00 0.97 0.00 90 1014.5
20260906100516 24 230 0.0 9.7 0.00 0.97 0.00 90 1014.5
20260906100025 24 222 0.0 6.4 0.00 0.97 0.00 90 1014.6
20260906095516 24 235 1.6 6.4 0.00 0.97 0.00 90 1014.6
20260906095014 24 213 0.0 9.7 0.00 0.97 0.00 89 1014.6
20260906094531 24 222 0.0 11.3 0.00 0.97 0.00 89 1014.6
20260906094018 24 239 1.6 11.3 0.00 0.97 0.00 89 1014.6
20260906093519 24 200 0.0 6.4 0.00 0.97 0.00 89 1014.7
20260906093022 24 195 0.0 6.4 0.00 0.97 0.00 89 1014.7
20260906092507 24 217 1.6 8.0 0.00 0.97 0.00 89 1014.9
20260906092016 24 230 1.6 9.7 0.00 0.97 0.00 89 1014.9
20260906091521 24 226 1.6 9.7 0.00 0.97 0.00 89 1015.0
20260906091012 24 212 1.6 12.9 0.00 0.97 0.00 89 1015.1
20260906090512 25 228 3.2 12.9 0.00 0.97 0.00 89 1015.1
20260906090023 25 230 3.2 11.3 0.00 0.97 0.00 89 1015.0
20260906085514 25 232 3.2 9.7 0.00 0.97 0.00 89 1015.1
20260906085017 25 237 3.2 8.0 0.00 0.97 0.00 89 1015.2
20260906084530 25 224 0.0 12.9 0.00 0.97 0.00 89 1015.3
20260906084014 25 230 3.2 12.9 0.00 0.97 0.00 89 1015.3
20260906083515 25 207 3.2 14.5 0.00 0.97 0.00 88 1015.2
20260906083031 25 228 3.2 14.5 0.00 0.99 0.00 88 1015.1
20260906082518 25 227 4.8 14.5 0.00 0.99 0.00 88 1015.0
20260906082009 25 220 6.4 14.5 0.00 0.99 0.00 88 1014.9
20260906081521 25 210 4.8 12.9 0.00 0.99 0.00 88 1014.8
20260906081010 25 230 4.8 12.9 0.00 0.99 0.00 88 1014.7
20260906080511 25 228 4.8 12.9 0.00 0.99 0.00 88 1014.6
20260906080020 25 215 4.8 16.1 0.00 0.99 0.00 88 1014.6
20260906075514 25 211 4.8 16.1 0.00 0.99 0.00 88 1014.5
20260906075012 25 220 4.8 14.5 0.00 0.99 0.00 88 1014.6
20260906074526 25 216 4.8 14.5 0.00 0.99 0.00 88 1014.5
20260906074013 25 224 3.2 12.9 0.00 0.99 0.00 88 1014.5
20260906073513 25 263 4.8 12.9 0.00 0.99 0.00 88 1014.6
20260906073046 25 223 4.8 16.1 0.00 0.99 0.00 88 1014.7
20260906072515 25 220 6.4 16.1 0.00 0.99 0.00 88 1014.7
20260906072018 25 202 8.0 20.9 0.00 0.99 0.00 88 1014.9
20260906071533 25 211 6.4 20.9 0.00 0.99 0.00 87 1014.9
20260906071019 25 230 4.8 14.5 0.00 0.99 0.00 87 1014.9
20260906070507 25 181 6.4 14.5 0.00 0.99 0.00 87 1014.9
20260906070017 25 201 6.4 12.9 0.00 0.99 0.00 87 1015.0
20260906065513 25 211 6.4 17.7 0.00 0.99 0.00 87 1015.1
20260906065014 25 193 4.8 17.7 0.00 0.99 0.00 87 1015.0
20260906064525 25 202 6.4 16.1 0.00 0.99 0.00 87 1014.9
20260906064016 25 218 4.8 12.9 0.00 0.99 0.00 86 1015.0
20260906063518 25 226 6.4 14.5 0.00 0.99 0.00 86 1015.1
20260906063030 25 205 4.8 14.5 0.00 0.99 0.00 86 1015.2
20260906062514 25 233 6.4 11.3 0.00 0.99 0.00 86 1015.1
20260906062017 25 235 4.8 12.9 0.00 0.99 0.00 86 1015.1
20260906061532 25 230 4.8 12.9 0.00 0.99 0.00 86 1015.1
20260906061018 25 225 4.8 12.9 0.00 0.99 0.00 86 1015.1
20260906060519 25 230 3.2 14.5 0.00 0.99 0.00 86 1015.1
20260906060015 25 230 4.8 14.5 0.00 0.99 0.00 85 1015.1
20260906055511 25 216 3.2 11.3 0.00 0.99 0.00 85 1015.1
20260906055012 25 268 1.6 12.9 0.00 0.99 0.00 85 1015.2
20260906054523 25 239 4.8 12.9 0.00 0.99 0.00 85 1015.1
20260906054014 25 198 3.2 11.3 0.00 0.99 0.00 85 1015.2
20260906053511 25 185 3.2 11.3 0.00 0.99 0.00 85 1015.3
20260906053035 25 221 1.6 11.3 0.00 0.99 0.00 84 1015.2
20260906052516 25 213 3.2 11.3 0.00 0.99 0.00 84 1015.2
20260906052014 25 231 1.6 14.5 0.00 0.99 0.00 84 1015.2
20260906051531 25 243 1.6 14.5 0.00 0.99 0.00 84 1015.1
20260906051006 25 234 3.2 11.3 0.00 0.99 0.00 83 1015.2
20260906050506 25 232 3.2 9.7 0.00 0.99 0.00 83 1015.2
20260906050013 25 223 1.6 9.7 0.00 0.99 0.00 83 1015.2
20260906045507 25 226 3.2 12.9 0.00 0.99 0.99 83 1015.2
20260906045007 25 217 3.2 12.9 0.00 0.99 0.99 83 1015.2
20260906044517 25 180 3.2 11.3 0.00 0.99 0.99 82 1015.2
20260906044012 25 237 3.2 9.7 0.00 0.99 0.99 82 1015.2
20260906043512 25 212 3.2 9.7 0.00 0.99 0.99 82 1015.3
20260906043038 25 234 1.6 12.9 0.00 0.99 0.99 82 1015.4
20260906042514 25 238 0.0 12.9 0.00 0.99 0.99 82 1015.5
20260906042013 25 208 0.0 8.0 0.00 0.99 0.99 81 1015.6
20260906041533 25 240 0.0 6.4 0.00 0.99 0.99 81 1015.6
20260906041016 25 68 0.0 6.4 0.00 0.99 0.99 81 1015.5
20260906040515 25 162 0.0 8.0 0.00 0.99 0.99 80 1015.7
20260906040036 25 216 0.0 8.0 0.00 0.99 0.99 80 1015.7
20260906035504 25 216 0.0 8.0 0.00 0.99 0.99 80 1015.7
20260906035007 25 225 1.6 6.4 0.00 0.99 0.99 79 1015.6
20260906034522 25 219 0.0 6.4 0.00 0.99 0.99 79 1015.6
20260906034007 25 235 0.0 6.4 0.00 0.99 0.99 79 1015.5
20260906033511 25 235 0.0 6.4 0.00 0.99 0.99 79 1015.4
20260906033025 25 223 0.0 9.7 0.00 0.99 0.99 78 1015.5
20260906032513 25 237 0.0 12.9 0.00 0.99 0.99 78 1015.3
20260906032015 25 233 0.0 12.9 0.00 0.99 0.99 77 1015.2
20260906031526 25 245 1.6 12.9 0.00 0.99 0.99 77 1015.2
20260906031014 26 239 1.6 12.9 0.00 0.99 0.99 77 1015.1
20260906030515 26 187 1.6 8.0 0.00 0.99 0.99 76 1015.1
20260906030030 26 226 1.6 11.3 0.00 0.99 0.99 76 1015.2
20260906025520 26 239 1.6 14.5 0.00 0.99 0.99 76 1015.3
20260906025017 26 234 3.2 14.5 0.00 0.99 0.99 75 1015.3
20260906024510 26 191 1.6 11.3 0.00 0.99 0.99 75 1015.2
20260906024009 26 76 3.2 11.3 0.00 0.99 0.99 74 1015.2
20260906023509 26 225 1.6 11.3 0.00 0.99 0.99 74 1015.3
20260906023014 26 249 3.2 12.9 0.00 0.99 0.99 74 1015.2
20260906022508 26 243 3.2 12.9 0.00 0.99 0.99 74 1015.1
20260906022011 26 240 1.6 11.3 0.00 0.99 0.99 73 1015.0
20260906021524 26 228 1.6 11.3 0.00 0.99 0.99 73 1015.0
20260906021011 26 236 1.6 11.3 0.00 0.99 0.99 72 1015.0
20260906020516 27 239 0.0 9.7 0.00 0.99 0.99 72 1015.0
20260906020026 27 194 1.6 16.1 0.00 0.99 0.99 72 1014.9
20260906015515 27 243 3.2 16.1 0.00 0.99 0.99 71 1014.9
20260906015018 27 139 1.6 6.4 0.00 0.99 0.99 71 1014.9
20260906014541 27 187 0.0 12.9 0.00 0.99 0.99 71 1014.9
20260906014017 27 244 0.0 12.9 0.00 0.99 0.99 70 1014.7
20260906013516 27 179 1.6 9.7 0.00 0.99 0.99 70 1014.6
20260906013013 27 243 0.0 11.3 0.00 0.99 0.99 70 1014.5
20260906012514 27 329 3.2 11.3 0.00 0.99 0.99 69 1014.6
20260906012012 27 233 1.6 11.3 0.00 0.99 0.99 69 1014.4
20260906011521 27 213 1.6 11.3 0.00 0.99 0.99 69 1014.2
20260906011017 27 190 1.6 11.3 0.00 0.99 0.99 68 1014.3
20260906010511 27 247 1.6 9.7 0.00 0.99 0.99 68 1014.4
20260906010027 28 155 0.0 11.3 0.00 0.99 0.99 67 1014.4
20260906005519 28 219 1.6 11.3 0.00 0.99 0.99 66 1014.4
20260906005013 28 209 3.2 11.3 0.00 0.99 0.99 66 1014.4
20260906004530 28 220 1.6 11.3 0.00 0.99 0.99 65 1014.3
20260906004016 28 207 0.0 12.9 0.00 0.99 0.99 65 1014.2
20260906003520 28 215 4.8 12.9 0.00 0.99 0.99 65 1014.2
20260906003030 28 154 3.2 11.3 0.00 0.99 0.99 64 1014.1
20260906002518 29 178 1.6 11.3 0.00 0.99 0.99 63 1014.1
20260906002008 29 226 1.6 12.9 0.00 0.99 0.99 63 1014.2
20260906001514 29 215 4.8 17.7 0.00 0.99 0.99 62 1014.0
20260906001011 30 224 4.8 17.7 0.00 0.99 0.99 61 1014.1
20260906000515 30 209 4.8 14.5 0.00 0.99 0.99 61 1014.1
20260906000023 30 222 3.2 14.5 0.00 0.99 0.99 60 1014.1
20260905235516 30 243 3.2 19.3 0.00 0.99 0.99 60 1014.0
20260905235016 30 230 6.4 19.3 0.00 0.99 0.99 59 1014.0
20260905234528 30 184 1.6 19.3 0.00 0.99 0.99 58 1013.9
20260905234017 30 226 4.8 19.3 0.00 0.99 0.99 58 1014.0
20260905233514 31 238 4.8 17.7 0.00 0.99 0.99 57 1014.1
20260905233031 31 212 4.8 17.7 0.00 0.99 0.99 57 1014.0
20260905232517 31 226 6.4 16.1 0.00 0.99 0.99 56 1013.8
20260905232016 31 228 6.4 16.1 0.00 0.99 0.99 55 1013.8
20260905231535 31 228 4.8 16.1 0.00 0.99 0.99 55 1013.8
20260905231007 31 228 4.8 16.1 0.00 0.99 0.99 54 1013.7
20260905230511 31 226 8.0 17.7 0.00 0.99 0.99 55 1013.7
20260905230018 31 227 4.8 19.3 0.00 0.99 0.99 55 1013.7
20260905225514 31 209 6.4 19.3 0.00 0.99 0.99 54 1013.7
20260905225014 31 216 6.4 17.7 0.00 0.99 0.99 54 1013.8
20260905224534 31 219 6.4 17.7 0.00 0.99 0.99 53 1013.9
20260905224016 31 219 6.4 19.3 0.00 0.99 0.99 52 1013.9
20260905223519 31 207 4.8 20.9 0.00 0.99 0.99 52 1014.0
20260905223034 31 226 8.0 20.9 0.00 0.99 0.99 51 1013.9
20260905222518 32 225 8.0 17.7 0.00 0.99 0.99 51 1013.9
20260905222016 32 220 6.4 17.7 0.00 0.99 0.99 52 1013.9
20260905221531 32 218 8.0 17.7 0.00 0.99 0.99 52 1013.8
20260905221019 32 226 6.4 16.1 0.00 0.99 0.99 51 1013.8
20260905220523 32 206 3.2 14.5 0.00 0.99 0.99 53 1013.7
20260905220031 32 187 6.4 14.5 0.00 0.99 0.99 51 1013.7
20260905215512 31 226 4.8 17.7 0.00 0.99 0.99 53 1013.7
20260905215017 32 231 3.2 17.7 0.00 0.99 0.99 53 1013.7
20260905214524 32 220 1.6 19.3 0.00 0.99 0.99 54 1013.6
20260905214013 32 225 6.4 19.3 0.00 0.99 0.99 54 1013.6
20260905213516 32 222 8.0 19.3 0.00 0.99 0.99 53 1013.6
20260905213029 32 213 4.8 14.5 0.00 0.99 0.99 54 1013.6
20260905212517 32 191 4.8 12.9 0.00 0.99 0.99 54 1013.6
20260905212013 32 247 3.2 14.5 0.00 0.99 0.99 55 1013.7
20260905211531 32 236 1.6 14.5 0.00 0.99 0.99 55 1013.6
20260905211021 32 218 3.2 14.5 0.00 0.99 0.99 56 1013.7
20260905210516 32 221 6.4 17.7 0.00 0.99 0.99 56 1013.7
20260905210010 32 251 8.0 17.7 0.00 0.99 0.99 56 1013.7
20260905205508 31 230 3.2 14.5 0.00 0.99 0.99 56 1013.6
20260905205013 31 225 6.4 14.5 0.00 0.99 0.99 56 1013.6
20260905204519 31 224 4.8 17.7 0.00 0.99 0.99 57 1013.6
20260905204013 31 234 9.7 17.7 0.00 0.99 0.99 56 1013.6
20260905203516 31 234 4.8 14.5 0.00 0.99 0.99 56 1013.6
20260905203023 31 230 0.0 12.9 0.00 0.99 0.99 58 1013.5
20260905202503 31 209 1.6 12.9 0.00 0.99 0.99 57 1013.6
20260905202003 31 217 4.8 11.3 0.00 0.99 0.99 56 1013.5
20260905201504 31 272 3.2 16.1 0.00 0.99 0.99 58 1013.4
20260905201003 31 236 3.2 16.1 0.00 0.99 0.99 57 1013.4
20260905200504 31 232 3.2 12.9 0.00 0.99 0.99 57 1013.5
20260905200011 31 239 1.6 6.4 0.00 0.99 0.99 58 1013.4
20260905195507 30 185 0.0 11.3 0.00 0.99 0.99 59 1013.3
20260905195011 30 209 3.2 11.3 0.00 0.99 0.99 56 1013.5
20260905194513 30 211 1.6 12.9 0.00 0.99 0.99 57 1013.6
20260905194012 30 229 4.8 16.1 0.00 0.99 0.99 57 1013.6